Вернуться в каталог

FENGYUN 1C DEB

АктивенPO
NORAD 32316·DEBRIS·🇨🇳 China

Запущен May 10, 1999 с Taiyuan Satellite Launch Center

Loading…

Ближайшие Пролёты (ближайшие 24 часа)

TLE

СвежийSource: Space-Track

Эпоха: Sep 14, 2026, 11:39 UTC

1 32316U 99025CXH 26257.48544376  .00001656  00000-0  40222-3 0  9994
2 32316  99.5086 326.0355 0027093 225.2826 264.8225 14.54282460997826

Отслеживайте FENGYUN 1C DEB в реальном времени с AllMySat

Download on the App Store